When you browse on this site, cookies collect data to enhance your experience and personalize the content and advertising you see.
Visit our Privacy Policy to learn more. By continuing to use the site, you agree to this use of cookies and data.
  • In Hungary
  • List of Countries
  • For 7 days
  • Water Temperature
  • Weather Map
  • News
  • Weather Widgets
  • user-avatar
    Login

    Hourly Weather Sihym

    Today, 15 December, Sunday

    Time Temperature Precipitation Wind Pressure Humidity
    00:00 -3°C° 0 mm 0 mps 711 mmHg 76%
    01:00 -3°C° 0 mm 0 mps 711 mmHg 74%
    02:00 -3°C° 0 mm 0 mps 711 mmHg 73%
    03:00 -3°C° 0 mm 0 mps 711 mmHg 72%
    04:00 -2°C° 0 mm 1 mps 711 mmHg 71%
    05:00 -4°C° 0 mm 1 mps 711 mmHg 71%
    06:00 -4°C° 0 mm 1 mps 711 mmHg 70%
    07:00 -4°C° 0 mm 1 mps 711 mmHg 69%
    08:00 -4°C° 0 mm 1 mps 711 mmHg 67%
    09:00 -2°C° 0 mm 1 mps 711 mmHg 63%
    10:00 -1°C° 0 mm 1 mps 712 mmHg 59%
    11:00 +1°C° 0 mm 1 mps 712 mmHg 55%
    12:00 +1°C° 0 mm 1 mps 712 mmHg 56%
    13:00 +2°C° 0 mm 1 mps 712 mmHg 56%
    14:00 +2°C° 0 mm 1 mps 711 mmHg 56%
    15:00 +1°C° 0 mm 1 mps 711 mmHg 61%
    16:00 -2°C° 0 mm 2 mps 711 mmHg 65%
    17:00 -3°C° 0 mm 2 mps 711 mmHg 69%
    18:00 -4°C° 0 mm 2 mps 711 mmHg 68%
    19:00 -4°C° 0 mm 2 mps 711 mmHg 67%
    20:00 -5°C° 0 mm 3 mps 711 mmHg 65%
    21:00 -4°C° 0 mm 2 mps 711 mmHg 63%
    22:00 -4°C° 0 mm 2 mps 711 mmHg 60%
    23:00 -4°C° 0 mm 2 mps 711 mmHg 57%

    Tomorrow, 16 December, Monday

    Time Temperature Precipitation Wind Pressure Humidity
    00:00 -4°C° 0 mm 2 mps 711 mmHg 54%
    01:00 -4°C° 0 mm 2 mps 711 mmHg 52%
    02:00 -4°C° 0 mm 2 mps 710 mmHg 49%
    03:00 -4°C° 0 mm 2 mps 710 mmHg 47%
    04:00 -4°C° 0 mm 2 mps 710 mmHg 46%
    05:00 -4°C° 0 mm 2 mps 710 mmHg 45%
    06:00 -4°C° 0 mm 2 mps 710 mmHg 44%
    07:00 -4°C° 0 mm 2 mps 710 mmHg 43%
    08:00 -4°C° 0 mm 2 mps 710 mmHg 43%
    09:00 -2°C° 0 mm 2 mps 711 mmHg 43%
    10:00 +1°C° 0 mm 2 mps 711 mmHg 43%
    11:00 +4°C° 0 mm 1 mps 711 mmHg 43%
    12:00 +4°C° 0 mm 1 mps 711 mmHg 43%
    13:00 +5°C° 0 mm 1 mps 710 mmHg 44%
    14:00 +5°C° 0 mm 1 mps 710 mmHg 44%
    15:00 +4°C° 0 mm 1 mps 710 mmHg 45%
    16:00 +2°C° 0 mm 1 mps 710 mmHg 47%
    17:00 -1°C° 0 mm 2 mps 709 mmHg 48%
    18:00 -2°C° 0 mm 2 mps 709 mmHg 46%
    19:00 -2°C° 0 mm 2 mps 709 mmHg 44%
    20:00 -2°C° 0 mm 2 mps 709 mmHg 43%
    21:00 -2°C° 0 mm 2 mps 709 mmHg 41%
    22:00 -2°C° 0 mm 2 mps 709 mmHg 38%
    23:00 -1°C° 0 mm 2 mps 709 mmHg 36%

    Day after tomorrow, 17 December, Tuesday

    Time Temperature Precipitation Wind Pressure Humidity
    00:00 -1°C° 0 mm 2 mps 709 mmHg 35%
    01:00 -1°C° 0 mm 2 mps 709 mmHg 34%
    02:00 -1°C° 0 mm 2 mps 709 mmHg 32%
    03:00 -1°C° 0 mm 2 mps 709 mmHg 32%
    04:00 -1°C° 0 mm 2 mps 709 mmHg 31%
    05:00 -1°C° 0 mm 2 mps 709 mmHg 31%
    06:00 -1°C° 0 mm 2 mps 709 mmHg 32%
    07:00 -1°C° 0 mm 2 mps 709 mmHg 32%
    08:00 +1°C° 0 mm 2 mps 709 mmHg 33%
    09:00 +2°C° 0 mm 2 mps 710 mmHg 34%
    10:00 +5°C° 0 mm 1 mps 710 mmHg 36%
    11:00 +7°C° 0 mm 1 mps 710 mmHg 38%
    12:00 +8°C° 0 mm 1 mps 710 mmHg 39%
    13:00 +7°C° 0 mm 0 mps 709 mmHg 41%
    14:00 +8°C° 0 mm 0 mps 709 mmHg 42%
    15:00 +7°C° 0 mm 1 mps 709 mmHg 42%
    16:00 +6°C° 0 mm 1 mps 708 mmHg 41%
    17:00 +4°C° 0 mm 2 mps 708 mmHg 41%
    18:00 +4°C° 0 mm 2 mps 708 mmHg 43%
    19:00 +3°C° 0 mm 2 mps 708 mmHg 44%
    20:00 +3°C° 0 mm 2 mps 708 mmHg 46%
    21:00 +3°C° 0 mm 2 mps 708 mmHg 47%
    22:00 +3°C° 0 mm 2 mps 707 mmHg 49%
    23:00 +4°C° 0 mm 2 mps 707 mmHg 50%

    18 December, Wednesday

    Time Temperature Precipitation Wind Pressure Humidity
    00:00 +4°C° 0 mm 2 mps 707 mmHg 51%
    01:00 +4°C° 0 mm 2 mps 707 mmHg 52%
    02:00 +4°C° 0 mm 2 mps 707 mmHg 52%
    03:00 +4°C° 0 mm 2 mps 707 mmHg 53%
    04:00 +4°C° 0 mm 2 mps 706 mmHg 54%
    05:00 +5°C° 0 mm 1 mps 706 mmHg 55%
    06:00 +5°C° 0 mm 1 mps 706 mmHg 58%
    07:00 +5°C° 0 mm 1 mps 706 mmHg 61%
    08:00 +4°C° 0 mm 1 mps 706 mmHg 65%
    09:00 +5°C° 0 mm 2 mps 707 mmHg 65%
    10:00 +6°C° 0 mm 2 mps 707 mmHg 66%
    11:00 +7°C° 0 mm 3 mps 708 mmHg 67%
    12:00 +5°C° 0.1 mm 4 mps 708 mmHg 68%
    13:00 +5°C° 0.1 mm 5 mps 708 mmHg 70%
    14:00 +4°C° 0.1 mm 6 mps 708 mmHg 71%
    15:00 +3°C° 0.4 mm 6 mps 708 mmHg 76%
    16:00 +2°C° 0.4 mm 5 mps 708 mmHg 81%
    17:00 +1°C° 0.4 mm 5 mps 709 mmHg 86%
    18:00 +1°C° 0.1 mm 5 mps 709 mmHg 86%
    19:00 +1°C° 0.1 mm 4 mps 710 mmHg 86%
    20:00 0°C° 0.1 mm 4 mps 710 mmHg 86%
    21:00 0°C° 0 mm 4 mps 710 mmHg 87%
    22:00 0°C° 0 mm 3 mps 711 mmHg 87%
    23:00 0°C° 0 mm 3 mps 711 mmHg 87%

    19 December, Thursday

    Time Temperature Precipitation Wind Pressure Humidity
    00:00 +1°C° 0 mm 2 mps 711 mmHg 86%
    01:00 +1°C° 0 mm 2 mps 711 mmHg 85%
    02:00 +1°C° 0 mm 1 mps 710 mmHg 85%
    03:00 +1°C° 0 mm 1 mps 710 mmHg 84%
    04:00 +1°C° 0 mm 1 mps 710 mmHg 83%
    05:00 +1°C° 0 mm 1 mps 710 mmHg 82%
    06:00 +2°C° 0 mm 1 mps 710 mmHg 81%
    07:00 +2°C° 0 mm 1 mps 710 mmHg 79%
    08:00 +2°C° 0 mm 1 mps 709 mmHg 77%
    09:00 +2°C° 0 mm 2 mps 709 mmHg 73%
    10:00 +3°C° 0 mm 2 mps 709 mmHg 69%
    11:00 +3°C° 0 mm 3 mps 709 mmHg 65%
    12:00 +4°C° 0 mm 4 mps 708 mmHg 67%
    13:00 +5°C° 0 mm 5 mps 708 mmHg 68%
    14:00 +4°C° 0 mm 6 mps 707 mmHg 69%
    15:00 +3°C° 0 mm 6 mps 707 mmHg 73%
    16:00 +3°C° 0 mm 5 mps 707 mmHg 77%
    17:00 +3°C° 0 mm 4 mps 707 mmHg 81%
    18:00 +2°C° 0 mm 5 mps 707 mmHg 81%
    19:00 +2°C° 0 mm 5 mps 707 mmHg 81%
    20:00 +2°C° 0 mm 5 mps 707 mmHg 80%
    21:00 +1°C° 0.1 mm 5 mps 707 mmHg 81%
    22:00 +1°C° 0.1 mm 5 mps 706 mmHg 83%
    23:00 +1°C° 0.1 mm 6 mps 706 mmHg 84%

    20 December, Friday

    Time Temperature Precipitation Wind Pressure Humidity
    00:00 -1°C° 0.5 mm 6 mps 706 mmHg 87%
    01:00 -1°C° 0.5 mm 6 mps 706 mmHg 90%
    02:00 -2°C° 0.5 mm 6 mps 706 mmHg 93%
    03:00 -2°C° 1 mm 6 mps 706 mmHg 94%
    04:00 -2°C° 1 mm 6 mps 706 mmHg 96%
    05:00 -2°C° 1 mm 6 mps 707 mmHg 97%
    06:00 -1°C° 0.8 mm 5 mps 707 mmHg 97%
    07:00 -1°C° 0.8 mm 5 mps 708 mmHg 97%
    08:00 -1°C° 0.8 mm 5 mps 708 mmHg 97%
    09:00 -1°C° 0.3 mm 4 mps 709 mmHg 96%
    10:00 0°C° 0.3 mm 4 mps 709 mmHg 95%
    11:00 0°C° 0.3 mm 4 mps 710 mmHg 95%
    12:00 0°C° 0 mm 4 mps 709 mmHg 92%
    13:00 +2°C° 0 mm 3 mps 709 mmHg 89%
    14:00 +2°C° 0 mm 3 mps 709 mmHg 86%
    15:00 +3°C° 0 mm 2 mps 709 mmHg 87%
    16:00 +2°C° 0 mm 2 mps 709 mmHg 88%
    17:00 +3°C° 0 mm 1 mps 709 mmHg 88%
    18:00 +3°C° 0 mm 1 mps 709 mmHg 86%
    19:00 +2°C° 0 mm 1 mps 709 mmHg 84%
    20:00 +2°C° 0 mm 1 mps 709 mmHg 82%
    21:00 +2°C° 0 mm 1 mps 709 mmHg 79%
    22:00 +2°C° 0 mm 1 mps 709 mmHg 76%
    23:00 +1°C° 0 mm 1 mps 709 mmHg 74%
    Show more